Home > Weather > Tartu > Past weeks

Flag for Estonia Past Weather in Tartu, Estonia — Yesterday and Last 2 Weeks

Now
77 °F

Passing clouds.


Feels Like: 79 °F
Forecast: 62 / 78 °F
Wind: 6 mph from Northwest

Location: Tartu/Ulenurme

Current Time: Jul 24, 2016 at 4:01:24 PM

Latest Report: Jul 24, 2016 at 2:50 PM


Visibility: N/A

Pressure: 30.12 "Hg

Humidity: 61%

Dew Point: 63 °F

Location of TartuLocation

Past Weather in Tartu — Graph

°F

Tartu Temperature Yesterday

Maximum temperature yesterday: 72 °F (at 6:50 PM)
Minimum temperature yesterday: 63 °F (at 12:50 AM)
Average temperature yesterday: 66 °F

High & Low Weather Summary for the Past Weeks

 TemperatureHumidityPressure
High75 °F (Jul 15, 2:50 PM)94% (Jul 11, 1:50 AM)30.12 "Hg (Jul 11, 1:50 AM)
Low54 °F (Jul 10, 3:50 AM)38% (Jul 9, 5:50 PM)29.59 "Hg (Jul 12, 12:50 AM)
Average64 °F76%29.85 "Hg
* Reported Jul 9 1:50 PM — Jul 24 1:50 PM, Tartu, Weather by CustomWeather, © 2016

Note: Actual official high and low records may vary slightly from our data, if they occured in-between our weather recording intervals... More about our weather records

Advertising

Tartu Weather History for the Previous 24 Hours

Scroll right to see more
 ConditionsComfort  
Time TempWeatherWind HumidityBarometerVisibility
1:50 PM
Sun, Jul 24
75 °FScattered clouds.3 mph61%30.12 "HgN/A
12:50 PM75 °FPassing clouds.6 mph61%30.12 "HgN/A
11:50 AM73 °FPartly sunny.6 mph69%30.12 "HgN/A
10:50 AM70 °FPartly sunny.5 mph78%30.12 "HgN/A
9:50 AM68 °FPartly sunny.2 mph83%30.12 "Hg6 mi
8:50 AM64 °FPartly sunny.3 mph94%30.12 "Hg5 mi
7:50 AM63 °FFog.No wind94%30.12 "Hg3 mi
6:50 AM63 °FLow clouds.3 mph94%30.12 "Hg1 mi
5:50 AM63 °FFog.5 mph94%30.12 "Hg1 mi
4:50 AM63 °FFog.2 mph94%30.12 "Hg3 mi
3:50 AM63 °FFog.3 mph94%30.12 "Hg3 mi
2:50 AM64 °FFog.5 mph88%30.09 "Hg5 mi
1:50 AM64 °FOvercast.3 mph88%30.09 "HgN/A
12:50 AM66 °FMostly cloudy.No wind83%30.09 "HgN/A
11:50 PM
Sat, Jul 23
66 °FOvercast.5 mph83%30.09 "HgN/A
10:50 PM66 °FOvercast.3 mph83%30.09 "HgN/A
9:50 PM68 °FScattered clouds.2 mph83%30.09 "HgN/A
8:50 PM70 °FOvercast.5 mph78%30.07 "HgN/A
7:50 PM70 °FMostly cloudy.9 mph78%30.07 "HgN/A
6:50 PM72 °FOvercast.8 mph78%30.07 "HgN/A
5:50 PM70 °FOvercast.6 mph78%30.07 "HgN/A
4:50 PM70 °FOvercast.6 mph78%30.07 "HgN/A
Weather by CustomWeather, © 2016

See weather overviewHow to use our weather pages